Saint Bonnet de Bellac- Haute Vienne - France
Donnes mto: mardi, 23/10/2012
Date Horaire Temp. E. Hum. E. P.atmo. Pluie Vent Direction Direction Ensoleilleme Solaire P. de rose Temp au vent Rafales
23/10/2012 00:00 12,4 C 94 % 1016,7 hPa 0,0 mm 0,7 km/h (0 Bft) E 90 0 min 0 W/m 11,5 C 12,4 C 3,6 km/h (1 Bft)
23/10/2012 00:10 12,6 C 94 % 1016,9 hPa 0,0 mm 0,0 km/h (0 Bft) E 90 0 min 0 W/m 11,7 C 12,6 C 0,0 km/h (0 Bft)
23/10/2012 00:20 12,6 C 94 % 1016,9 hPa 0,0 mm 0,0 km/h (0 Bft) E 90 0 min 0 W/m 11,7 C 12,6 C 0,0 km/h (0 Bft)
23/10/2012 00:30 13,0 C 94 % 1017,1 hPa 0,0 mm 0,4 km/h (0 Bft) SE 135 0 min 0 W/m 12,1 C 13,0 C 2,9 km/h (1 Bft)
23/10/2012 00:40 13,3 C 95 % 1017,1 hPa 0,0 mm 0,0 km/h (0 Bft) SE 135 0 min 0 W/m 12,5 C 13,3 C 0,0 km/h (0 Bft)
23/10/2012 00:50 13,7 C 95 % 1017,2 hPa 0,0 mm 0,0 km/h (0 Bft) E-SE 112 0 min 0 W/m 12,9 C 13,7 C 0,0 km/h (0 Bft)
23/10/2012 01:00 14,2 C 95 % 1017,3 hPa 0,0 mm 0,0 km/h (0 Bft) E-SE 112 0 min 0 W/m 13,4 C 14,2 C 0,0 km/h (0 Bft)
23/10/2012 01:10 14,5 C 94 % 1017,5 hPa 0,0 mm 0,0 km/h (0 Bft) SE 135 0 min 0 W/m 13,5 C 14,5 C 0,0 km/h (0 Bft)
23/10/2012 01:20 14,6 C 94 % 1017,6 hPa 0,0 mm 0,0 km/h (0 Bft) SE 135 0 min 0 W/m 13,6 C 14,6 C 0,0 km/h (0 Bft)
23/10/2012 01:30 14,9 C 94 % 1017,8 hPa 0,0 mm 4,7 km/h (1 Bft) S 180 0 min 0 W/m 13,9 C 14,9 C 8,3 km/h (2 Bft)
23/10/2012 01:40 15,0 C 94 % 1017,8 hPa 0,0 mm 0,4 km/h (0 Bft) S 180 0 min 0 W/m 14,0 C 15,0 C 2,9 km/h (1 Bft)
23/10/2012 01:50 15,1 C 94 % 1017,9 hPa 0,0 mm 0,0 km/h (0 Bft) S 180 0 min 0 W/m 14,1 C 15,1 C 0,0 km/h (0 Bft)
23/10/2012 02:00 15,2 C 93 % 1018,0 hPa 0,0 mm 0,4 km/h (0 Bft) S 180 0 min 0 W/m 14,1 C 15,2 C 3,2 km/h (1 Bft)
23/10/2012 02:10 15,3 C 93 % 1017,9 hPa 0,0 mm 0,0 km/h (0 Bft) S-SO 202 0 min 0 W/m 14,2 C 15,3 C 0,0 km/h (0 Bft)
23/10/2012 02:20 15,4 C 93 % 1017,8 hPa 0,0 mm 3,2 km/h (1 Bft) S 180 0 min 0 W/m 14,3 C 15,4 C 3,2 km/h (1 Bft)
23/10/2012 02:30 15,5 C 93 % 1017,8 hPa 0,0 mm 6,8 km/h (2 Bft) S 180 0 min 0 W/m 14,4 C 15,5 C 9,0 km/h (2 Bft)
23/10/2012 02:40 15,6 C 93 % 1018,0 hPa 0,0 mm 8,6 km/h (2 Bft) S-SE 157 0 min 0 W/m 14,5 C 15,6 C 13,7 km/h (3 Bft)
23/10/2012 02:50 15,7 C 92 % 1018,0 hPa 0,0 mm 6,8 km/h (2 Bft) S-SO 202 0 min 0 W/m 14,4 C 15,7 C 10,8 km/h (2 Bft)
23/10/2012 03:00 15,7 C 91 % 1018,1 hPa 0,0 mm 2,5 km/h (1 Bft) SO 225 0 min 0 W/m 14,2 C 15,7 C 3,6 km/h (1 Bft)
23/10/2012 03:10 15,8 C 91 % 1018,2 hPa 0,0 mm 6,1 km/h (2 Bft) S-SO 202 0 min 0 W/m 14,3 C 15,8 C 6,5 km/h (2 Bft)
23/10/2012 03:20 15,8 C 91 % 1018,3 hPa 0,0 mm 2,5 km/h (1 Bft) S-SO 202 0 min 0 W/m 14,3 C 15,8 C 2,5 km/h (1 Bft)
23/10/2012 03:30 15,8 C 91 % 1018,2 hPa 0,0 mm 2,2 km/h (1 Bft) S 180 0 min 0 W/m 14,3 C 15,8 C 7,2 km/h (2 Bft)
23/10/2012 03:40 16,0 C 91 % 1018,3 hPa 0,0 mm 2,5 km/h (1 Bft) E-SE 112 0 min 0 W/m 14,5 C 16,0 C 4,0 km/h (1 Bft)
23/10/2012 03:50 16,4 C 90 % 1018,2 hPa 0,0 mm 1,1 km/h (1 Bft) SO 225 0 min 0 W/m 14,8 C 16,4 C 4,3 km/h (1 Bft)
23/10/2012 04:00 16,7 C 89 % 1018,3 hPa 0,0 mm 0,4 km/h (0 Bft) O-SO 247 0 min 0 W/m 14,9 C 16,7 C 0,4 km/h (0 Bft)
23/10/2012 04:10 16,8 C 89 % 1018,3 hPa 0,0 mm 1,1 km/h (1 Bft) SO 225 0 min 0 W/m 15,0 C 16,8 C 3,6 km/h (1 Bft)
23/10/2012 04:20 16,9 C 88 % 1018,3 hPa 0,0 mm 0,7 km/h (0 Bft) SO 225 0 min 0 W/m 14,9 C 16,9 C 3,6 km/h (1 Bft)
23/10/2012 04:30 16,9 C 88 % 1018,2 hPa 0,0 mm 0,0 km/h (0 Bft) SO 225 0 min 0 W/m 14,9 C 16,9 C 0,0 km/h (0 Bft)
23/10/2012 04:40 17,0 C 88 % 1018,1 hPa 0,0 mm 2,5 km/h (1 Bft) SO 225 0 min 0 W/m 15,0 C 17,0 C 2,9 km/h (1 Bft)
23/10/2012 04:50 17,1 C 88 % 1018,1 hPa 0,0 mm 0,0 km/h (0 Bft) SO 225 0 min 0 W/m 15,1 C 17,1 C 0,0 km/h (0 Bft)
23/10/2012 05:00 17,3 C 88 % 1018,2 hPa 0,0 mm 0,0 km/h (0 Bft) SO 225 0 min 0 W/m 15,3 C 17,3 C 0,0 km/h (0 Bft)
23/10/2012 05:10 17,5 C 87 % 1018,1 hPa 0,0 mm 0,4 km/h (0 Bft) SO 225 0 min 0 W/m 15,3 C 17,5 C 0,4 km/h (0 Bft)
23/10/2012 05:20 17,5 C 86 % 1018,1 hPa 0,0 mm 0,0 km/h (0 Bft) SO 225 0 min 0 W/m 15,1 C 17,5 C 3,2 km/h (1 Bft)
23/10/2012 05:30 17,6 C 85 % 1018,2 hPa 0,0 mm 0,0 km/h (0 Bft) S 180 0 min 0 W/m 15,0 C 17,6 C 0,0 km/h (0 Bft)
23/10/2012 05:40 17,8 C 86 % 1018,1 hPa 0,0 mm 0,7 km/h (0 Bft) SO 225 0 min 0 W/m 15,4 C 17,8 C 3,6 km/h (1 Bft)
23/10/2012 05:50 17,9 C 84 % 1018,1 hPa 0,0 mm 1,1 km/h (1 Bft) S-SO 202 0 min 0 W/m 15,2 C 17,9 C 4,3 km/h (1 Bft)
23/10/2012 06:00 18,1 C 84 % 1018,1 hPa 0,0 mm 0,0 km/h (0 Bft) SO 225 0 min 0 W/m 15,4 C 18,1 C 0,0 km/h (0 Bft)
23/10/2012 06:10 18,3 C 84 % 1018,1 hPa 0,0 mm 0,0 km/h (0 Bft) SO 225 0 min 0 W/m 15,5 C 18,3 C 0,0 km/h (0 Bft)
23/10/2012 06:20 18,4 C 83 % 1018,1 hPa 0,0 mm 0,0 km/h (0 Bft) O-SO 247 0 min 0 W/m 15,5 C 18,4 C 0,0 km/h (0 Bft)
23/10/2012 06:30 18,5 C 84 % 1018,1 hPa 0,0 mm 0,0 km/h (0 Bft) O 270 0 min 0 W/m 15,7 C 18,5 C 0,0 km/h (0 Bft)
23/10/2012 06:40 18,6 C 83 % 1018,2 hPa 0,0 mm 0,4 km/h (0 Bft) O 270 0 min 0 W/m 15,7 C 18,6 C 0,4 km/h (0 Bft)
23/10/2012 06:50 18,6 C 83 % 1018,3 hPa 0,0 mm 1,4 km/h (1 Bft) O 270 0 min 0 W/m 15,7 C 18,6 C 4,3 km/h (1 Bft)
23/10/2012 07:00 18,5 C 82 % 1018,4 hPa 0,0 mm 0,0 km/h (0 Bft) O 270 0 min 0 W/m 15,4 C 18,5 C 0,0 km/h (0 Bft)
23/10/2012 07:10 18,5 C 83 % 1018,4 hPa 0,0 mm 0,0 km/h (0 Bft) O 270 0 min 0 W/m 15,6 C 18,5 C 0,0 km/h (0 Bft)
23/10/2012 07:20 18,5 C 83 % 1018,3 hPa 0,0 mm 0,7 km/h (0 Bft) O 270 0 min 0 W/m 15,6 C 18,5 C 4,3 km/h (1 Bft)
23/10/2012 07:30 18,6 C 82 % 1018,3 hPa 0,0 mm 0,0 km/h (0 Bft) O 270 0 min 0 W/m 15,5 C 18,6 C 0,0 km/h (0 Bft)
23/10/2012 07:40 18,5 C 82 % 1018,3 hPa 0,0 mm 2,2 km/h (1 Bft) O-NO 292 0 min 0 W/m 15,4 C 18,5 C 4,3 km/h (1 Bft)
23/10/2012 07:50 18,4 C 82 % 1018,3 hPa 0,0 mm 0,0 km/h (0 Bft) N-NO 337 0 min 0 W/m 15,3 C 18,4 C 0,0 km/h (0 Bft)
23/10/2012 08:00 18,4 C 83 % 1018,4 hPa 0,0 mm 0,0 km/h (0 Bft) N-NO 337 0 min 0 W/m 15,5 C 18,4 C 0,0 km/h (0 Bft)
23/10/2012 08:10 18,6 C 82 % 1018,4 hPa 0,0 mm 0,0 km/h (0 Bft) NO 315 0 min 0 W/m 15,5 C 18,6 C 0,0 km/h (0 Bft)
23/10/2012 08:20 18,8 C 82 % 1018,4 hPa 0,0 mm 0,0 km/h (0 Bft) O-NO 292 0 min 0 W/m 15,7 C 18,8 C 0,0 km/h (0 Bft)
23/10/2012 08:30 18,8 C 81 % 1018,6 hPa 0,0 mm 0,0 km/h (0 Bft) O-NO 292 0 min 0 W/m 15,5 C 18,8 C 0,0 km/h (0 Bft)
23/10/2012 08:40 18,9 C 80 % 1018,5 hPa 0,0 mm 0,0 km/h (0 Bft) NO 315 0 min 0 W/m 15,4 C 18,9 C 0,0 km/h (0 Bft)
23/10/2012 08:50 18,9 C 80 % 1018,7 hPa 0,0 mm 0,0 km/h (0 Bft) NO 315 0 min 0 W/m 15,4 C 18,9 C 0,0 km/h (0 Bft)
23/10/2012 09:00 19,1 C 80 % 1018,6 hPa 0,0 mm 0,7 km/h (0 Bft) NO 315 0 min 0 W/m 15,6 C 19,1 C 0,7 km/h (0 Bft)
23/10/2012 09:10 19,1 C 80 % 1018,7 hPa 0,0 mm 0,0 km/h (0 Bft) NO 315 0 min 0 W/m 15,6 C 19,1 C 0,0 km/h (0 Bft)
23/10/2012 09:20 19,1 C 81 % 1018,7 hPa 0,0 mm 0,0 km/h (0 Bft) NO 315 0 min 0 W/m 15,8 C 19,1 C 0,0 km/h (0 Bft)
23/10/2012 09:30 18,9 C 80 % 1018,7 hPa 0,0 mm 0,0 km/h (0 Bft) NO 315 0 min 0 W/m 15,4 C 18,9 C 0,0 km/h (0 Bft)
23/10/2012 09:40 18,7 C 80 % 1018,9 hPa 0,0 mm 0,0 km/h (0 Bft) NO 315 0 min 0 W/m 15,2 C 18,7 C 0,0 km/h (0 Bft)
23/10/2012 09:50 18,3 C 81 % 1018,9 hPa 0,0 mm 0,0 km/h (0 Bft) NO 315 0 min 0 W/m 15,0 C 18,3 C 0,0 km/h (0 Bft)
23/10/2012 10:00 17,8 C 81 % 1019,1 hPa 0,0 mm 0,0 km/h (0 Bft) NO 315 0 min 0 W/m 14,5 C 17,8 C 0,0 km/h (0 Bft)
23/10/2012 10:10 17,2 C 82 % 1019,1 hPa 0,0 mm 0,0 km/h (0 Bft) NO 315 0 min 0 W/m 14,1 C 17,2 C 0,0 km/h (0 Bft)
23/10/2012 10:20 16,6 C 83 % 1019,1 hPa 0,0 mm 0,0 km/h (0 Bft) NO 315 0 min 0 W/m 13,7 C 16,6 C 0,0 km/h (0 Bft)
23/10/2012 10:30 15,9 C 83 % 1019,1 hPa 0,0 mm 0,0 km/h (0 Bft) NO 315 0 min 0 W/m 13,0 C 15,9 C 0,0 km/h (0 Bft)
23/10/2012 10:40 15,4 C 84 % 1019,2 hPa 0,0 mm 0,0 km/h (0 Bft) NO 315 0 min 0 W/m 12,7 C 15,4 C 0,0 km/h (0 Bft)
23/10/2012 10:50 14,8 C 85 % 1019,3 hPa 0,0 mm 0,0 km/h (0 Bft) NO 315 0 min 0 W/m 12,3 C 14,8 C 0,0 km/h (0 Bft)
23/10/2012 11:00 14,4 C 85 % 1019,5 hPa 0,0 mm 0,0 km/h (0 Bft) NO 315 0 min 0 W/m 11,9 C 14,4 C 0,0 km/h (0 Bft)
23/10/2012 11:10 14,1 C 86 % 1019,5 hPa 0,0 mm 0,0 km/h (0 Bft) NO 315 0 min 0 W/m 11,8 C 14,1 C 0,0 km/h (0 Bft)
23/10/2012 11:20 13,9 C 87 % 1019,5 hPa 0,0 mm 0,0 km/h (0 Bft) NO 315 0 min 0 W/m 11,8 C 13,9 C 0,0 km/h (0 Bft)
23/10/2012 11:30 13,6 C 87 % 1019,5 hPa 0,0 mm 0,0 km/h (0 Bft) NO 315 0 min 0 W/m 11,5 C 13,6 C 0,0 km/h (0 Bft)
23/10/2012 11:40 13,4 C 88 % 1019,5 hPa 0,0 mm 0,0 km/h (0 Bft) NO 315 0 min 0 W/m 11,5 C 13,4 C 0,0 km/h (0 Bft)
23/10/2012 11:50 13,1 C 88 % 1019,5 hPa 0,0 mm 0,0 km/h (0 Bft) NO 315 0 min 0 W/m 11,2 C 13,1 C 0,0 km/h (0 Bft)
23/10/2012 12:00 13,1 C 89 % 1019,5 hPa 0,0 mm 0,0 km/h (0 Bft) NO 315 0 min 0 W/m 11,3 C 13,1 C 0,0 km/h (0 Bft)
23/10/2012 12:10 13,1 C 89 % 1019,6 hPa 0,0 mm 0,0 km/h (0 Bft) E-NE 67 0 min 0 W/m 11,3 C 13,1 C 0,0 km/h (0 Bft)
23/10/2012 12:20 13,1 C 90 % 1019,7 hPa 0,0 mm 0,0 km/h (0 Bft) E-NE 67 0 min 0 W/m 11,5 C 13,1 C 0,0 km/h (0 Bft)
23/10/2012 12:30 12,9 C 90 % 1019,8 hPa 0,0 mm 0,0 km/h (0 Bft) E 90 0 min 0 W/m 11,3 C 12,9 C 0,0 km/h (0 Bft)
23/10/2012 12:40 12,9 C 90 % 1019,9 hPa 0,0 mm 0,7 km/h (0 Bft) E-NE 67 0 min 0 W/m 11,3 C 12,9 C 0,7 km/h (0 Bft)
23/10/2012 12:50 13,1 C 90 % 1020,0 hPa 0,0 mm 0,0 km/h (0 Bft) E 90 0 min 0 W/m 11,5 C 13,1 C 0,0 km/h (0 Bft)
23/10/2012 13:00 13,0 C 90 % 1019,9 hPa 0,0 mm 0,0 km/h (0 Bft) E 90 0 min 0 W/m 11,4 C 13,0 C 0,0 km/h (0 Bft)
23/10/2012 13:10 12,8 C 90 % 1019,9 hPa 0,0 mm 0,0 km/h (0 Bft) E 90 0 min 0 W/m 11,2 C 12,8 C 0,0 km/h (0 Bft)
23/10/2012 13:20 12,6 C 91 % 1019,9 hPa 0,0 mm 0,0 km/h (0 Bft) E 90 0 min 0 W/m 11,2 C 12,6 C 0,0 km/h (0 Bft)
23/10/2012 13:30 12,3 C 91 % 1019,8 hPa 0,0 mm 0,0 km/h (0 Bft) E 90 0 min 0 W/m 10,9 C 12,3 C 0,0 km/h (0 Bft)
23/10/2012 13:40 12,1 C 91 % 1019,8 hPa 0,0 mm 0,0 km/h (0 Bft) E 90 0 min 0 W/m 10,7 C 12,1 C 0,0 km/h (0 Bft)
23/10/2012 13:50 11,8 C 91 % 1019,8 hPa 0,0 mm 0,0 km/h (0 Bft) E 90 0 min 0 W/m 10,4 C 11,8 C 0,0 km/h (0 Bft)
23/10/2012 14:00 11,6 C 92 % 1019,8 hPa 0,0 mm 0,0 km/h (0 Bft) E 90 0 min 0 W/m 10,3 C 11,6 C 0,0 km/h (0 Bft)
23/10/2012 14:10 11,6 C 92 % 1020,0 hPa 0,0 mm 0,0 km/h (0 Bft) E 90 0 min 0 W/m 10,3 C 11,6 C 0,0 km/h (0 Bft)
23/10/2012 14:20 11,5 C 91 % 1020,0 hPa 0,0 mm 0,0 km/h (0 Bft) E 90 0 min 0 W/m 10,1 C 11,5 C 0,0 km/h (0 Bft)
23/10/2012 14:30 11,4 C 91 % 1020,1 hPa 0,0 mm 0,0 km/h (0 Bft) E 90 0 min 0 W/m 10,0 C 11,4 C 0,0 km/h (0 Bft)
23/10/2012 14:40 11,4 C 92 % 1020,1 hPa 0,0 mm 0,0 km/h (0 Bft) E 90 0 min 0 W/m 10,1 C 11,4 C 0,0 km/h (0 Bft)
23/10/2012 14:50 11,4 C 92 % 1020,0 hPa 0,0 mm 0,0 km/h (0 Bft) E 90 0 min 0 W/m 10,1 C 11,4 C 0,0 km/h (0 Bft)
23/10/2012 15:00 11,3 C 92 % 1020,0 hPa 0,0 mm 0,0 km/h (0 Bft) E 90 0 min 0 W/m 10,0 C 11,3 C 0,0 km/h (0 Bft)
23/10/2012 15:10 10,9 C 92 % 1020,0 hPa 0,0 mm 0,0 km/h (0 Bft) E 90 0 min 0 W/m 9,7 C 10,9 C 0,0 km/h (0 Bft)
23/10/2012 15:20 10,8 C 92 % 1020,0 hPa 0,0 mm 0,0 km/h (0 Bft) E 90 0 min 0 W/m 9,6 C 10,8 C 0,0 km/h (0 Bft)
23/10/2012 15:30 10,8 C 92 % 1020,1 hPa 0,0 mm 0,0 km/h (0 Bft) E 90 0 min 0 W/m 9,6 C 10,8 C 0,0 km/h (0 Bft)
23/10/2012 15:40 10,6 C 92 % 1020,1 hPa 0,0 mm 0,0 km/h (0 Bft) E 90 0 min 0 W/m 9,4 C 10,6 C 0,0 km/h (0 Bft)
23/10/2012 15:50 10,6 C 92 % 1020,1 hPa 0,1 mm 0,0 km/h (0 Bft) E 90 0 min 0 W/m 9,4 C 10,6 C 0,0 km/h (0 Bft)
23/10/2012 16:00 10,5 C 92 % 1020,0 hPa 0,0 mm 0,0 km/h (0 Bft) E 90 0 min 0 W/m 9,3 C 10,5 C 0,0 km/h (0 Bft)
23/10/2012 16:10 10,4 C 93 % 1020,0 hPa 0,0 mm 0,0 km/h (0 Bft) E 90 0 min 0 W/m 9,3 C 10,4 C 0,0 km/h (0 Bft)
23/10/2012 16:20 10,2 C 93 % 1019,9 hPa 0,0 mm 0,0 km/h (0 Bft) E 90 0 min 0 W/m 9,1 C 10,2 C 0,0 km/h (0 Bft)
23/10/2012 16:30 10,1 C 93 % 1019,9 hPa 0,0 mm 0,0 km/h (0 Bft) E 90 0 min 0 W/m 9,0 C 10,1 C 0,0 km/h (0 Bft)
23/10/2012 16:40 9,9 C 93 % 1019,8 hPa 0,0 mm 0,0 km/h (0 Bft) E 90 0 min 0 W/m 8,8 C 9,9 C 0,0 km/h (0 Bft)
23/10/2012 16:50 9,8 C 92 % 1019,8 hPa 0,0 mm 0,0 km/h (0 Bft) E 90 0 min 0 W/m 8,6 C 9,8 C 0,0 km/h (0 Bft)
23/10/2012 17:00 9,8 C 92 % 1019,9 hPa 0,0 mm 0,0 km/h (0 Bft) E 90 0 min 0 W/m 8,6 C 9,8 C 0,0 km/h (0 Bft)
23/10/2012 17:10 9,8 C 92 % 1019,8 hPa 0,0 mm 0,0 km/h (0 Bft) E 90 0 min 0 W/m 8,6 C 9,8 C 0,0 km/h (0 Bft)
23/10/2012 17:20 9,8 C 93 % 1019,9 hPa 0,0 mm 0,0 km/h (0 Bft) E 90 0 min 0 W/m 8,7 C 9,8 C 0,0 km/h (0 Bft)
23/10/2012 17:30 9,6 C 93 % 1019,8 hPa 0,0 mm 0,0 km/h (0 Bft) E-NE 67 0 min 0 W/m 8,5 C 9,6 C 0,0 km/h (0 Bft)
23/10/2012 17:40 9,6 C 93 % 1019,9 hPa 0,0 mm 0,0 km/h (0 Bft) E-NE 67 0 min 0 W/m 8,5 C 9,6 C 0,0 km/h (0 Bft)
23/10/2012 17:50 9,4 C 93 % 1019,9 hPa 0,0 mm 0,0 km/h (0 Bft) E-NE 67 0 min 0 W/m 8,3 C 9,4 C 0,0 km/h (0 Bft)
23/10/2012 18:00 9,6 C 93 % 1019,9 hPa 0,0 mm 0,0 km/h (0 Bft) E 90 0 min 0 W/m 8,5 C 9,6 C 2,9 km/h (1 Bft)
23/10/2012 18:10 9,8 C 93 % 1020,0 hPa 0,0 mm 0,0 km/h (0 Bft) E 90 0 min 0 W/m 8,7 C 9,8 C 0,0 km/h (0 Bft)
23/10/2012 18:20 9,9 C 93 % 1020,0 hPa 0,0 mm 0,0 km/h (0 Bft) N 360 0 min 0 W/m 8,8 C 9,9 C 0,0 km/h (0 Bft)
23/10/2012 18:30 9,8 C 93 % 1020,0 hPa 0,0 mm 0,0 km/h (0 Bft) E 90 0 min 0 W/m 8,7 C 9,8 C 0,0 km/h (0 Bft)
23/10/2012 18:40 9,9 C 93 % 1019,9 hPa 0,0 mm 0,0 km/h (0 Bft) E-SE 112 0 min 0 W/m 8,8 C 9,9 C 0,0 km/h (0 Bft)
23/10/2012 18:50 10,0 C 93 % 1019,9 hPa 0,0 mm 0,0 km/h (0 Bft) E-SE 112 0 min 0 W/m 8,9 C 10,0 C 0,0 km/h (0 Bft)
23/10/2012 19:00 10,0 C 93 % 1019,8 hPa 0,0 mm 0,0 km/h (0 Bft) E-SE 112 0 min 0 W/m 8,9 C 10,0 C 0,0 km/h (0 Bft)
23/10/2012 19:10 10,0 C 93 % 1019,7 hPa 0,0 mm 0,0 km/h (0 Bft) E-SE 112 0 min 0 W/m 8,9 C 10,0 C 0,0 km/h (0 Bft)
23/10/2012 19:20 9,9 C 93 % 1019,8 hPa 0,0 mm 0,0 km/h (0 Bft) E-SE 112 0 min 0 W/m 8,8 C 9,9 C 0,0 km/h (0 Bft)
23/10/2012 19:30 9,7 C 93 % 1019,6 hPa 0,0 mm 0,0 km/h (0 Bft) E-SE 112 0 min 0 W/m 8,6 C 9,7 C 0,0 km/h (0 Bft)
23/10/2012 19:40 9,5 C 93 % 1019,6 hPa 0,0 mm 0,0 km/h (0 Bft) E-SE 112 0 min 0 W/m 8,4 C 9,5 C 0,0 km/h (0 Bft)
23/10/2012 19:50 9,4 C 93 % 1019,6 hPa 0,0 mm 0,0 km/h (0 Bft) E-SE 112 0 min 0 W/m 8,3 C 9,4 C 0,0 km/h (0 Bft)
23/10/2012 20:00 9,4 C 94 % 1019,5 hPa 0,0 mm 0,0 km/h (0 Bft) E-SE 112 0 min 0 W/m 8,5 C 9,4 C 0,0 km/h (0 Bft)
23/10/2012 20:10 9,4 C 93 % 1019,6 hPa 0,0 mm 0,0 km/h (0 Bft) E-SE 112 0 min 0 W/m 8,3 C 9,4 C 0,0 km/h (0 Bft)
23/10/2012 20:20 9,4 C 94 % 1019,6 hPa 0,0 mm 0,7 km/h (0 Bft) E-SE 112 0 min 0 W/m 8,5 C 9,4 C 3,6 km/h (1 Bft)
23/10/2012 20:30 9,4 C 94 % 1019,6 hPa 0,0 mm 0,0 km/h (0 Bft) E-SE 112 0 min 0 W/m 8,5 C 9,4 C 0,0 km/h (0 Bft)
23/10/2012 20:40 9,4 C 94 % 1019,6 hPa 0,0 mm 0,0 km/h (0 Bft) E-SE 112 0 min 0 W/m 8,5 C 9,4 C 0,0 km/h (0 Bft)
23/10/2012 20:50 9,4 C 94 % 1019,5 hPa 0,0 mm 0,0 km/h (0 Bft) E-SE 112 0 min 0 W/m 8,5 C 9,4 C 0,0 km/h (0 Bft)
23/10/2012 21:00 9,4 C 94 % 1019,5 hPa 0,0 mm 0,0 km/h (0 Bft) E-SE 112 0 min 0 W/m 8,5 C 9,4 C 0,0 km/h (0 Bft)
23/10/2012 21:10 9,4 C 94 % 1019,7 hPa 0,0 mm 0,0 km/h (0 Bft) E-SE 112 0 min 0 W/m 8,5 C 9,4 C 0,0 km/h (0 Bft)
23/10/2012 21:20 9,3 C 94 % 1019,7 hPa 0,0 mm 0,0 km/h (0 Bft) E-SE 112 0 min 0 W/m 8,4 C 9,3 C 0,0 km/h (0 Bft)
23/10/2012 21:30 9,3 C 94 % 1019,7 hPa 0,0 mm 0,0 km/h (0 Bft) E-SE 112 0 min 0 W/m 8,4 C 9,3 C 0,0 km/h (0 Bft)
23/10/2012 21:40 9,5 C 94 % 1019,7 hPa 0,0 mm 0,0 km/h (0 Bft) E-SE 112 0 min 0 W/m 8,6 C 9,5 C 0,0 km/h (0 Bft)
23/10/2012 21:50 9,7 C 94 % 1019,7 hPa 0,0 mm 0,0 km/h (0 Bft) E-SE 112 0 min 0 W/m 8,8 C 9,7 C 0,0 km/h (0 Bft)
23/10/2012 22:00 9,7 C 94 % 1019,6 hPa 0,0 mm 0,0 km/h (0 Bft) E-SE 112 0 min 0 W/m 8,8 C 9,7 C 0,0 km/h (0 Bft)
23/10/2012 22:10 9,8 C 94 % 1019,6 hPa 0,0 mm 0,0 km/h (0 Bft) E-SE 112 0 min 0 W/m 8,9 C 9,8 C 0,0 km/h (0 Bft)
23/10/2012 22:20 9,9 C 94 % 1019,7 hPa 0,0 mm 0,0 km/h (0 Bft) E-SE 112 0 min 0 W/m 9,0 C 9,9 C 0,0 km/h (0 Bft)
23/10/2012 22:30 10,1 C 94 % 1019,7 hPa 0,0 mm 0,0 km/h (0 Bft) E-SE 112 0 min 0 W/m 9,2 C 10,1 C 0,0 km/h (0 Bft)
23/10/2012 22:40 10,2 C 94 % 1019,7 hPa 0,0 mm 0,0 km/h (0 Bft) E-SE 112 0 min 0 W/m 9,3 C 10,2 C 0,0 km/h (0 Bft)
23/10/2012 22:50 10,3 C 94 % 1019,7 hPa 0,0 mm 0,0 km/h (0 Bft) E-SE 112 0 min 0 W/m 9,4 C 10,3 C 0,0 km/h (0 Bft)
23/10/2012 23:00 10,4 C 94 % 1019,6 hPa 0,0 mm 0,0 km/h (0 Bft) E-SE 112 0 min 0 W/m 9,5 C 10,4 C 0,0 km/h (0 Bft)
23/10/2012 23:10 10,5 C 94 % 1019,6 hPa 0,0 mm 0,0 km/h (0 Bft) E-SE 112 0 min 0 W/m 9,6 C 10,5 C 0,0 km/h (0 Bft)
23/10/2012 23:20 10,5 C 94 % 1019,7 hPa 0,0 mm 0,0 km/h (0 Bft) E-SE 112 0 min 0 W/m 9,6 C 10,5 C 0,0 km/h (0 Bft)
23/10/2012 23:30 10,4 C 94 % 1019,7 hPa 0,0 mm 0,0 km/h (0 Bft) E-SE 112 0 min 0 W/m 9,5 C 10,4 C 0,0 km/h (0 Bft)
23/10/2012 23:40 10,3 C 94 % 1019,7 hPa 0,0 mm 0,0 km/h (0 Bft) E-SE 112 0 min 0 W/m 9,4 C 10,3 C 0,0 km/h (0 Bft)
23/10/2012 23:50 10,1 C 94 % 1019,8 hPa 0,0 mm 0,0 km/h (0 Bft) E-SE 112 0 min 0 W/m 9,2 C 10,1 C 0,0 km/h (0 Bft)
_ Min-Heure 21:30 09:40 00:00 - 23:50 - - - - 20:10 21:30 23:50
Minimum _ 9,3 C 80 % 1016,7 hPa - 0,0 km/h (0 Bft) - - - - 8,3 C 9,3 C 0,0 km/h (0 Bft)
_ Max-Heure 09:20 01:00 15:50 15:50 02:40 - - 23:50 23:50 09:20 09:20 02:40
Maximum _ 19,1 C 95 % 1020,1 hPa 0,1 mm 8,6 km/h
S-SE (2 Bft)
- - 0 min 0 W/m 15,8 C 19,1 C 13,7 km/h
S-SE (3 Bft)
Moyenne _ 13,5 C 90 % 1019,1 hPa #0,1 mm 0,4 km/h (0 Bft) E - #0 min. 0 W/m 11,8 C 13,5 C 0,9 km/h (0 Bft)
Saint Bonnet de Bellac- Haute Vienne - France